Regional Weather Roundup
Issued by NWS

Home | Current Version | Previous Version | Graphics & Text | Print | Product List | Glossary On
Versions: 1 2 3 4 5 6 7 8 9 10 11 12 13 14 15 16 17 18 19 20 21 22 23 24 25 26 27
000
ASUS45 KPSR 260410
RWRAZ

ARIZONA HOURLY REGIONAL WEATHER ROUNDUP
NATIONAL WEATHER SERVICE PHOENIX AZ
900 PM MST TUE JUL 25 2017

NOTE: FAIR INDICATES FEW OR NO CLOUDS BELOW 12,000 FEET WITH NO
SIGNIFICANT WEATHER AND/OR OBSTRUCTIONS TO VISIBILITY.

AZZ001>003-036-260500-
NORTHWEST ARIZONA

CITY           SKY/WX    TMP DP  RH WIND       PRES   REMARKS
KINGMAN        CLEAR     69  67  93 NE5       30.12R
$$

AZZ004>008-015-016-018-260500-
NORTH CENTRAL ARIZONA

CITY           SKY/WX    TMP DP  RH WIND       PRES   REMARKS
GRAND CANYON   CLEAR     57  56  96 CALM      30.33R
WILLIAMS       CLEAR     61  55  82 N5        30.34R
PRESCOTT       CLEAR     68  63  84 SW5       30.22R
FLAGSTAFF      MOCLDY    59  59 100 CALM      30.35R
PAYSON         CLEAR     70  63  78 CALM      30.25S
PAGE           CLEAR     75  61  61 N8        30.13R
$$

AZZ009>014-017-260500-
NORTHEAST ARIZONA

CITY           SKY/WX    TMP DP  RH WIND       PRES   REMARKS
WINSLOW        CLEAR     74  59  59 SW7       30.19R
SAINT JOHNS    PTCLDY    69  64  84 SW7       30.25R
WINDOW ROCK    MOCLDY    68  57  68 CALM      30.31R
SHOW LOW       CLEAR     64  57  77 S8        30.33R
$$

AZZ540-542>544-546-548-260500-
GREATER PHOENIX AREA

CITY           SKY/WX    TMP DP  RH WIND       PRES   REMARKS
PHOENIX        PTCLDY    97  59  28 N3        29.88R
BUCKEYE        CLEAR     91  64  40 NE6       29.88S
LUKE AFB       CLEAR     93  63  36 CALM      29.88R
DEER VALLEY    CLEAR     92  64  39 N7        29.91R
SCOTTSDALE     CLEAR     92  61  35 CALM      29.93R
MESA-GATEWAY   PTCLDY    91  66  43 NW5       29.92R
CHANDLER       CLEAR     95  63  34 NW7       29.90R
$$

AZZ539-553-260500-
SOUTHWEST MARICOPA COUNTY AND PINAL COUNTY

CITY           SKY/WX    TMP DP  RH WIND       PRES   REMARKS
CASA GRANDE    CLEAR     92  67  43 NW5       29.93R
GILA BEND      CLEAR     97  60  29 CALM      29.86R
$$

AZZ503-504-507>509-260500-
SOUTHEAST ARIZONA

CITY           SKY/WX    TMP DP  RH WIND       PRES   REMARKS
TUCSON         PTCLDY    88  64  44 SW3       30.04R
DAVIS-MONTHAN  CLEAR     86  63  46 CALM      30.03R
NOGALES        MOCLDY    77  65  66 E3        30.13R
SIERRA VISTA   PTCLDY    76  67  73 W8        30.20R
DOUGLAS        CLOUDY    76  64  66 E7        30.15R
SAFFORD        MOCLDY    81  68  64 NW6       30.04R
$$

AZZ532-260500-
SOUTHWEST ARIZONA

CITY           SKY/WX    TMP DP  RH WIND       PRES   REMARKS
YUMA           CLEAR     93  45  19 S7        29.82R
$$

CAZ041-043-047-048-061-525>527-560>570-260500-
SOUTHERN CALIFORNIA

CITY           SKY/WX    TMP DP  RH WIND       PRES   REMARKS
DOWNTOWN L.A.  CLEAR     70  63  78 CALM      29.96S
L.A. AIRPORT   PTCLDY    68  63  84 W8        29.97R
SAN DIEGO      CLOUDY    72  63  73 NW6       29.99S
BURBANK        CLEAR     71  58  63 VRB6      29.96S
ONTARIO        PTCLDY    73  61  65 W8        29.97R
RIVERSIDE      CLEAR     73  63  70 W8        29.98R
PALM SPRINGS   CLEAR     96  62  32 NW14      29.84R
EL CENTRO NAS  PTCLDY    92  54  27 SE12      29.81R
IMPERIAL       CLEAR     95  53  24 SE9       29.79R
BLYTHE         PTCLDY   100  52  19 S10       29.82R
NEEDLES        CLEAR     87  68  52 N12       29.90R
$$

NVZ020-UTZ003-260500-
SOUTHERN NEVADA-UTAH

CITY           SKY/WX    TMP DP  RH WIND       PRES   REMARKS
LAS VEGAS      PTCLDY    81  68  64 E9        30.00S
SALT LAKE CITY MOCLDY    80  59  48 S9        30.08R
$$

NMZ009-TXZ055-260500-
NEW MEXICO-WEST TEXAS

CITY           SKY/WX    TMP DP  RH WIND       PRES   REMARKS
ALBUQUERQUE    CLOUDY    80  55  42 N8        30.21R
EL PASO        CLOUDY    88  58  36 SW8       30.10R
$$


........................KEY........................
SKY/WX - SKY CONDITION/WEATHER
TMP    - TEMPERATURE IN FAHRENHEIT
DP     - DEW POINT IN FAHRENHEIT
RH     - RELATIVE HUMIDITY IN PERCENT
WIND   - DIRECTION AND SPEED IN MILES PER HOUR (MPH)
VRB    - VARIABLE WIND DIRECTION
PRES   - MEAN SEA LEVEL PRESSURE IN INCHES OF MERCURY
         F - FALLING PRESSURE   R - RISING PRESSURE
         S - STEADY PRESSURE
VSB    - VISIBILITY IN MILES
HX     - HEAT INDEX IN FAHRENHEIT
WCI    - WIND CHILL INDEX IN FAHRENHEIT
TC     - TEMPERATURE IN CELSIUS WHICH IS ALSO KNOWN AS
         TEMPERATURE IN CENTIGRADE
AFB    - AIR FORCE BASE
         LUKE AFB IS LUKE AIR FORCE BASE
         DAVIS-MONTHAN IS DAVIS-MONTHAN AIR FORCE BASE
NAS    - NAVAL AIR STATION
         EL CENTRO NAS IS EL CENTRO NAVAL AIR STATION
N/A    - NOT AVAILABLE





USA.gov is the U.S. government's official web portal to all federal, state and local government web resources and services.